When you browse on this site, cookies collect data to enhance your experience and personalize the content and advertising you see.
Visit our Privacy Policy to learn more. By continuing to use the site, you agree to this use of cookies and data.
  • In Sweden
  • List of Countries
  • For 7 days
  • Water Temperature
  • Weather Map
  • Weather Widgets
  • user-avatar
    Login

    Hourly Weather Carvin

    Today, 21 August, Wednesday

    Time Temperature Precipitation Wind Pressure Humidity
    00:00 +13°C° 0 mm 1 mps 768 mmHg 84%
    01:00 +13°C° 0 mm 1 mps 768 mmHg 85%
    02:00 +13°C° 0 mm 1 mps 767 mmHg 87%
    03:00 +13°C° 0 mm 1 mps 767 mmHg 88%
    04:00 +13°C° 0 mm 1 mps 768 mmHg 86%
    05:00 +13°C° 0 mm 1 mps 768 mmHg 85%
    06:00 +14°C° 0 mm 1 mps 768 mmHg 84%
    07:00 +16°C° 0 mm 1 mps 768 mmHg 75%
    08:00 +19°C° 0 mm 1 mps 768 mmHg 67%
    09:00 +21°C° 0 mm 1 mps 768 mmHg 58%
    10:00 +22°C° 0 mm 1 mps 768 mmHg 53%
    11:00 +23°C° 0 mm 1 mps 768 mmHg 47%
    12:00 +24°C° 0 mm 1 mps 768 mmHg 42%
    13:00 +24°C° 0 mm 1 mps 767 mmHg 40%
    14:00 +24°C° 0 mm 1 mps 767 mmHg 38%
    15:00 +25°C° 0 mm 1 mps 767 mmHg 37%
    16:00 +24°C° 0 mm 1 mps 767 mmHg 41%
    17:00 +23°C° 0 mm 1 mps 766 mmHg 45%
    18:00 +22°C° 0 mm 1 mps 766 mmHg 49%
    19:00 +20°C° 0 mm 1 mps 766 mmHg 54%
    20:00 +19°C° 0 mm 1 mps 767 mmHg 60%
    21:00 +16°C° 0 mm 1 mps 767 mmHg 66%
    22:00 +15°C° 0 mm 1 mps 767 mmHg 70%
    23:00 +15°C° 0 mm 1 mps 767 mmHg 73%

    Tomorrow, 22 August, Thursday

    Time Temperature Precipitation Wind Pressure Humidity
    00:00 +15°C° 0 mm 1 mps 767 mmHg 77%
    01:00 +13°C° 0 mm 0 mps 766 mmHg 77%
    02:00 +13°C° 0 mm 0 mps 766 mmHg 78%
    03:00 +13°C° 0 mm 0 mps 766 mmHg 78%
    04:00 +13°C° 0 mm 0 mps 766 mmHg 76%
    05:00 +14°C° 0 mm 0 mps 766 mmHg 75%
    06:00 +14°C° 0 mm 0 mps 766 mmHg 73%
    07:00 +16°C° 0 mm 0 mps 767 mmHg 66%
    08:00 +20°C° 0 mm 1 mps 767 mmHg 59%
    09:00 +22°C° 0 mm 1 mps 767 mmHg 52%
    10:00 +23°C° 0 mm 1 mps 767 mmHg 48%
    11:00 +25°C° 0 mm 1 mps 767 mmHg 43%
    12:00 +26°C° 0 mm 1 mps 766 mmHg 39%
    13:00 +26°C° 0 mm 2 mps 766 mmHg 38%
    14:00 +26°C° 0 mm 2 mps 766 mmHg 36%
    15:00 +27°C° 0 mm 2 mps 766 mmHg 35%
    16:00 +26°C° 0 mm 2 mps 766 mmHg 41%
    17:00 +24°C° 0 mm 2 mps 766 mmHg 47%
    18:00 +23°C° 0 mm 2 mps 766 mmHg 52%
    19:00 +20°C° 0 mm 2 mps 766 mmHg 56%
    20:00 +19°C° 0 mm 2 mps 766 mmHg 60%
    21:00 +18°C° 0 mm 1 mps 766 mmHg 64%
    22:00 +18°C° 0 mm 1 mps 766 mmHg 65%
    23:00 +16°C° 0 mm 1 mps 766 mmHg 66%

    Day after tomorrow, 23 August, Friday

    Time Temperature Precipitation Wind Pressure Humidity
    00:00 +15°C° 0 mm 1 mps 766 mmHg 67%
    01:00 +15°C° 0 mm 1 mps 766 mmHg 68%
    02:00 +15°C° 0 mm 1 mps 766 mmHg 69%
    03:00 +13°C° 0 mm 0 mps 766 mmHg 70%
    04:00 +15°C° 0 mm 1 mps 766 mmHg 70%
    05:00 +15°C° 0 mm 1 mps 766 mmHg 69%
    06:00 +16°C° 0 mm 1 mps 766 mmHg 69%
    07:00 +18°C° 0 mm 1 mps 766 mmHg 63%
    08:00 +20°C° 0 mm 1 mps 766 mmHg 57%
    09:00 +21°C° 0 mm 2 mps 766 mmHg 51%
    10:00 +24°C° 0 mm 2 mps 766 mmHg 48%
    11:00 +25°C° 0 mm 2 mps 765 mmHg 45%
    12:00 +26°C° 0 mm 2 mps 765 mmHg 43%
    13:00 +27°C° 0 mm 2 mps 765 mmHg 41%
    14:00 +27°C° 0 mm 2 mps 764 mmHg 40%
    15:00 +28°C° 0 mm 2 mps 764 mmHg 39%
    16:00 +26°C° 0 mm 2 mps 764 mmHg 44%
    17:00 +25°C° 0 mm 2 mps 764 mmHg 49%
    18:00 +24°C° 0 mm 2 mps 764 mmHg 54%
    19:00 +21°C° 0 mm 3 mps 764 mmHg 58%
    20:00 +20°C° 0 mm 3 mps 764 mmHg 63%
    21:00 +18°C° 0 mm 3 mps 764 mmHg 67%
    22:00 +18°C° 0 mm 2 mps 764 mmHg 70%
    23:00 +18°C° 0 mm 2 mps 763 mmHg 74%

    24 August, Saturday

    Time Temperature Precipitation Wind Pressure Humidity
    00:00 +17°C° 0 mm 2 mps 763 mmHg 78%
    01:00 +17°C° 0 mm 2 mps 763 mmHg 79%
    02:00 +17°C° 0 mm 2 mps 763 mmHg 80%
    03:00 +16°C° 0 mm 2 mps 762 mmHg 82%
    04:00 +16°C° 0 mm 2 mps 762 mmHg 80%
    05:00 +17°C° 0 mm 2 mps 762 mmHg 79%
    06:00 +17°C° 0 mm 2 mps 762 mmHg 77%
    07:00 +19°C° 0 mm 2 mps 762 mmHg 68%
    08:00 +23°C° 0 mm 2 mps 762 mmHg 59%
    09:00 +25°C° 0 mm 2 mps 762 mmHg 50%
    10:00 +27°C° 0 mm 2 mps 762 mmHg 46%
    11:00 +28°C° 0 mm 2 mps 761 mmHg 41%
    12:00 +30°C° 0 mm 3 mps 761 mmHg 37%
    13:00 +30°C° 0 mm 3 mps 761 mmHg 35%
    14:00 +30°C° 0 mm 3 mps 760 mmHg 34%
    15:00 +31°C° 0 mm 3 mps 760 mmHg 33%
    16:00 +29°C° 0 mm 2 mps 760 mmHg 37%
    17:00 +28°C° 0 mm 2 mps 760 mmHg 42%
    18:00 +27°C° 0 mm 2 mps 759 mmHg 47%
    19:00 +26°C° 0 mm 1 mps 760 mmHg 50%
    20:00 +24°C° 0 mm 1 mps 760 mmHg 53%
    21:00 +23°C° 0 mm 1 mps 760 mmHg 56%
    22:00 +22°C° 0 mm 1 mps 760 mmHg 58%
    23:00 +22°C° 0 mm 1 mps 760 mmHg 60%

    25 August, Sunday

    Time Temperature Precipitation Wind Pressure Humidity
    00:00 +21°C° 0 mm 1 mps 759 mmHg 63%
    01:00 +21°C° 0 mm 1 mps 759 mmHg 65%
    02:00 +20°C° 0 mm 1 mps 759 mmHg 67%
    03:00 +20°C° 0 mm 1 mps 759 mmHg 69%
    04:00 +20°C° 0 mm 1 mps 759 mmHg 70%
    05:00 +20°C° 0 mm 1 mps 759 mmHg 71%
    06:00 +21°C° 0 mm 1 mps 759 mmHg 72%
    07:00 +23°C° 0 mm 2 mps 759 mmHg 66%
    08:00 +25°C° 0 mm 2 mps 759 mmHg 60%
    09:00 +27°C° 0 mm 2 mps 759 mmHg 55%
    10:00 +29°C° 0 mm 2 mps 759 mmHg 48%
    11:00 +30°C° 0 mm 2 mps 759 mmHg 41%
    12:00 +32°C° 0 mm 2 mps 758 mmHg 35%
    13:00 +32°C° 0 mm 2 mps 758 mmHg 33%
    14:00 +32°C° 0 mm 2 mps 758 mmHg 31%
    15:00 +34°C° 0 mm 2 mps 758 mmHg 30%
    16:00 +32°C° 0 mm 1 mps 758 mmHg 34%
    17:00 +30°C° 0 mm 1 mps 758 mmHg 38%
    18:00 +27°C° 0 mm 0 mps 758 mmHg 42%
    19:00 +28°C° 0 mm 1 mps 758 mmHg 45%
    20:00 +26°C° 0 mm 1 mps 758 mmHg 48%
    21:00 +25°C° 0 mm 2 mps 758 mmHg 51%
    22:00 +24°C° 0 mm 2 mps 758 mmHg 53%
    23:00 +23°C° 0 mm 2 mps 758 mmHg 55%

    26 August, Monday

    Time Temperature Precipitation Wind Pressure Humidity
    00:00 +23°C° 0 mm 1 mps 758 mmHg 57%
    01:00 +21°C° 0 mm 2 mps 758 mmHg 60%
    02:00 +20°C° 0 mm 2 mps 758 mmHg 63%
    03:00 +20°C° 0 mm 2 mps 758 mmHg 66%
    04:00 +19°C° 0 mm 2 mps 758 mmHg 68%
    05:00 +19°C° 0 mm 2 mps 758 mmHg 70%
    06:00 +19°C° 0 mm 2 mps 758 mmHg 72%
    07:00 +21°C° 0 mm 2 mps 758 mmHg 67%
    08:00 +22°C° 0 mm 3 mps 759 mmHg 61%
    09:00 +23°C° 0 mm 4 mps 759 mmHg 56%
    10:00 +25°C° 0 mm 4 mps 760 mmHg 55%
    11:00 +25°C° 0 mm 5 mps 760 mmHg 54%
    12:00 +25°C° 0 mm 5 mps 760 mmHg 53%
    13:00 +25°C° 0 mm 5 mps 760 mmHg 52%
    14:00 +25°C° 0 mm 5 mps 761 mmHg 52%
    15:00 +23°C° 0 mm 5 mps 761 mmHg 51%
    16:00 +22°C° 0 mm 5 mps 761 mmHg 54%
    17:00 +21°C° 0 mm 4 mps 761 mmHg 57%
    18:00 +20°C° 0 mm 4 mps 762 mmHg 60%
    19:00 +19°C° 0 mm 4 mps 762 mmHg 66%
    20:00 +18°C° 0 mm 4 mps 762 mmHg 72%
    21:00 +17°C° 0 mm 3 mps 763 mmHg 78%
    22:00 +17°C° 0 mm 3 mps 763 mmHg 81%
    23:00 +17°C° 0 mm 3 mps 763 mmHg 84%
    Show more